Weather History for KCKC - May, 2013

Change the Weather History Date:

Monday, May 13, 2013

  Actual Average Record
Temperature  
Mean Temperature 34 °F -  
Max Temperature 46 °F 55 °F 95 °F (1997)
Min Temperature 23 °F 35 °F 3 °F (1999)
Degree Days  
Heating Degree Days 30    
Moisture  
Dew Point 16 °F    
Average Humidity 43    
Maximum Humidity 74    
Minimum Humidity 27    
Precipitation  
Precipitation 0.00 in - - ()
Sea Level Pressure  
Sea Level Pressure 29.97 in    
Wind  
Wind Speed 5 mph (SSE)    
Max Wind Speed 12 mph    
Max Gust Speed 17 mph    
Visibility 10 miles    
Events Rain    
Averages and records for this station are not official NWS values.
T = Trace of Precipitation, MM = Missing Value Source: NWS Daily Summary

Daily Weather History Graph

Daily Weather History Graph

Search for Another Location

Airport or City:

Trip Planner

Search our weather history database for the weather conditions in past years. The results will help you decide how hot, cold, wet, or windy it might be!

Date:

Astronomy

May. 13, 2013 Rise Set
Actual Time 5:25 AM CDT 8:30 PM CDT
Civil Twilight 4:49 AM CDT 9:07 PM CDT
Nautical Twilight 4:01 AM CDT 9:55 PM CDT
Astronomical Twilight 3:03 AM CDT 10:54 PM CDT
Moon 8:10 AM CDT (5/13) 11:40 PM CDT (5/13)
Length of Visible Light 16h 18m
Length of Day
15h 05m
Waxing Crescent, 12% of the Moon is Illuminated
May 13
Waxing Crescent
May 17
First Quarter
May 24
Full
May 31
Last Quarter
Jun 8
New

Hourly Weather History & Observations

Time (CDT) Temp. Windchill Dew Point Humidity Pressure Visibility Wind Dir Wind Speed Gust Speed Precip Events Conditions
12:13 AM 30.2 °F 24.3 °F 14.0 °F 51% 30.08 in 10.0 mi West 5.8 mph - N/A   Clear
12:33 AM 30.2 °F 24.3 °F 14.0 °F 51% 30.07 in 10.0 mi West 5.8 mph - N/A   Clear
12:53 AM 30.2 °F 24.3 °F 14.0 °F 51% 30.07 in 10.0 mi West 5.8 mph - N/A   Clear
1:14 AM 30.2 °F 25.4 °F 14.0 °F 51% 30.07 in 10.0 mi West 4.6 mph - N/A   Clear
1:34 AM 28.4 °F 23.3 °F 14.0 °F 55% 30.06 in 10.0 mi West 4.6 mph - N/A   Clear
1:54 AM 28.4 °F 22.2 °F 14.0 °F 55% 30.06 in 10.0 mi West 5.8 mph - N/A   Clear
2:13 AM 30.2 °F 23.4 °F 14.0 °F 51% 30.06 in 10.0 mi West 6.9 mph - N/A   Clear
2:34 AM 30.2 °F 23.4 °F 14.0 °F 51% 30.06 in 10.0 mi West 6.9 mph - N/A   Clear
2:53 AM 30.2 °F 25.4 °F 14.0 °F 51% 30.06 in 10.0 mi WNW 4.6 mph - N/A   Clear
3:14 AM 28.4 °F 24.6 °F 15.8 °F 59% 30.05 in 10.0 mi NW 3.5 mph - N/A   Clear
3:34 AM 28.4 °F 24.6 °F 15.8 °F 59% 30.05 in 10.0 mi WNW 3.5 mph - N/A   Clear
3:53 AM 26.6 °F - 15.8 °F 64% 30.06 in 10.0 mi Calm Calm - N/A   Clear
4:14 AM 24.8 °F 19.1 °F 17.6 °F 74% 30.06 in 10.0 mi NNW 4.6 mph - N/A   Clear
4:34 AM 23.0 °F 17.0 °F 15.8 °F 74% 30.06 in 10.0 mi NW 4.6 mph - N/A   Clear
4:53 AM 26.6 °F 21.2 °F 14.0 °F 59% 30.06 in 10.0 mi NNW 4.6 mph - N/A   Clear
5:13 AM 24.8 °F 20.5 °F 14.0 °F 64% 30.06 in 10.0 mi NW 3.5 mph - N/A   Clear
5:33 AM 26.6 °F 21.2 °F 15.8 °F 64% 30.06 in 10.0 mi NW 4.6 mph - N/A   Clear
5:53 AM 28.4 °F 24.6 °F 15.8 °F 59% 30.06 in 10.0 mi WNW 3.5 mph - N/A   Clear
6:13 AM 28.4 °F 24.6 °F 17.6 °F 64% 30.06 in 10.0 mi WNW 3.5 mph - N/A   Clear
6:33 AM 30.2 °F - 17.6 °F 60% 30.06 in 10.0 mi Calm Calm - N/A   Clear
6:54 AM 33.8 °F - 19.4 °F 56% 30.06 in 10.0 mi Calm Calm - N/A   Clear
7:13 AM 33.8 °F - 17.6 °F 52% 30.07 in 10.0 mi Calm Calm - N/A   Clear
7:34 AM 35.6 °F - 17.6 °F 48% 30.08 in 10.0 mi Calm Calm - N/A   Clear
7:53 AM 37.4 °F - 17.6 °F 45% 30.08 in 10.0 mi Calm Calm - N/A   Clear
8:13 AM 39.2 °F - 15.8 °F 39% 30.08 in 10.0 mi Calm Calm - N/A   Clear
8:33 AM 41.0 °F - 15.8 °F 36% 30.08 in 10.0 mi Calm Calm - N/A   Clear
8:54 AM 42.8 °F - 15.8 °F 34% 30.08 in 10.0 mi Calm Calm - N/A   Clear
9:14 AM 42.8 °F 41.1 °F 15.8 °F 34% 30.07 in 10.0 mi South 3.5 mph - N/A   Clear
9:34 AM 44.6 °F 41.4 °F 15.8 °F 31% 30.06 in 10.0 mi SW 5.8 mph - N/A   Clear
9:53 AM 44.6 °F 42.2 °F 14.0 °F 29% 30.06 in 10.0 mi South 4.6 mph - N/A   Clear
10:13 AM 44.6 °F 41.4 °F 15.8 °F 31% 30.05 in 10.0 mi SE 5.8 mph - N/A   Clear
10:34 AM 46.4 °F 43.5 °F 15.8 °F 29% 30.04 in 10.0 mi SSE 5.8 mph - N/A   Clear
10:53 AM 46.4 °F 42.4 °F 15.8 °F 29% 30.04 in 10.0 mi South 8.1 mph - N/A   Clear
11:14 AM 46.4 °F 42.9 °F 15.8 °F 29% 30.04 in 10.0 mi South 6.9 mph - N/A   Clear
11:33 AM 46.4 °F 41.9 °F 15.8 °F 29% 30.03 in 10.0 mi SSE 9.2 mph - N/A   Clear
11:54 AM 46.4 °F 42.9 °F 14.0 °F 27% 30.02 in 10.0 mi South 6.9 mph - N/A   Clear
12:13 PM 46.4 °F 41.5 °F 14.0 °F 27% 30.02 in 10.0 mi South 10.4 mph - N/A   Clear
12:34 PM 46.4 °F 41.5 °F 15.8 °F 29% 30.00 in 10.0 mi South 10.4 mph 16.1 mph N/A   Clear
12:53 PM 44.6 °F 38.8 °F 14.0 °F 29% 30.00 in 10.0 mi South 11.5 mph 17.3 mph N/A   Clear
1:14 PM 44.6 °F 39.2 °F 14.0 °F 29% 30.00 in 10.0 mi South 10.4 mph - N/A   Clear
1:33 PM 42.8 °F 37.0 °F 14.0 °F 31% 29.99 in 10.0 mi South 10.4 mph - N/A   Clear
1:53 PM 42.8 °F 39.3 °F 14.0 °F 31% 29.98 in 10.0 mi SSE 5.8 mph - N/A   Clear
2:13 PM 42.8 °F 37.5 °F 12.2 °F 29% 29.98 in 10.0 mi South 9.2 mph - N/A   Clear
2:33 PM 42.8 °F 38.0 °F 12.2 °F 29% 29.97 in 10.0 mi SSE 8.1 mph - N/A   Clear
3:33 PM 42.8 °F 40.1 °F 14.0 °F 31% 29.93 in 10.0 mi SE 4.6 mph - N/A   Clear
3:53 PM 42.8 °F 39.3 °F 12.2 °F 29% 29.91 in 10.0 mi SSE 5.8 mph - N/A   Clear
4:14 PM 42.8 °F 40.1 °F 12.2 °F 29% 29.89 in 10.0 mi SE 4.6 mph - N/A   Scattered Clouds
4:33 PM 42.8 °F 41.1 °F 14.0 °F 31% 29.90 in 7.0 mi South 3.5 mph - N/A   Scattered Clouds
4:53 PM 42.8 °F 41.1 °F 15.8 °F 34% 29.88 in 10.0 mi SE 3.5 mph - N/A   Mostly Cloudy
5:14 PM 42.8 °F 41.1 °F 14.0 °F 31% 29.89 in 10.0 mi SE 3.5 mph - N/A   Mostly Cloudy
5:34 PM 41.0 °F 39.0 °F 17.6 °F 39% 29.87 in 10.0 mi SE 3.5 mph - N/A Rain Light Rain
5:53 PM 41.0 °F 38.0 °F 14.0 °F 33% 29.86 in 10.0 mi ESE 4.6 mph - N/A   Mostly Cloudy
6:34 PM 42.8 °F 37.5 °F 14.0 °F 31% 29.85 in 10.0 mi ESE 9.2 mph - N/A   Mostly Cloudy
7:14 PM 39.2 °F 33.6 °F 14.0 °F 36% 29.84 in 10.0 mi East 8.1 mph - N/A   Mostly Cloudy
7:33 PM 39.2 °F 35.0 °F 14.0 °F 36% 29.83 in 10.0 mi ESE 5.8 mph - N/A   Overcast
7:53 PM 39.2 °F 33.6 °F 15.8 °F 39% 29.82 in 10.0 mi East 8.1 mph - N/A   Overcast
8:13 PM 37.4 °F 31.4 °F 15.8 °F 41% 29.81 in 10.0 mi ESE 8.1 mph - N/A   Mostly Cloudy
8:34 PM 39.2 °F 33.6 °F 15.8 °F 39% 29.80 in 10.0 mi East 8.1 mph - N/A   Overcast
8:53 PM 39.2 °F 35.0 °F 15.8 °F 39% 29.80 in 10.0 mi East 5.8 mph - N/A   Overcast
9:13 PM 37.4 °F 32.1 °F 17.6 °F 45% 29.79 in 10.0 mi East 6.9 mph - N/A   Overcast
9:34 PM 39.2 °F 35.0 °F 17.6 °F 42% 29.79 in 10.0 mi ENE 5.8 mph - N/A   Overcast
9:54 PM 39.2 °F 33.0 °F 19.4 °F 45% 29.78 in 10.0 mi ESE 9.2 mph - N/A   Overcast
10:13 PM 39.2 °F 34.2 °F 21.2 °F 49% 29.77 in 10.0 mi East 6.9 mph - N/A   Overcast
10:33 PM 39.2 °F 34.2 °F 21.2 °F 49% 29.76 in 10.0 mi East 6.9 mph - N/A   Overcast
10:53 PM 41.0 °F 36.4 °F 21.2 °F 45% 29.76 in 10.0 mi East 6.9 mph - N/A   Overcast
11:14 PM 42.8 °F 41.1 °F 21.2 °F 42% 29.75 in 10.0 mi East 3.5 mph - N/A   Overcast
11:34 PM 39.2 °F 37.0 °F 23.0 °F 52% 29.75 in 10.0 mi NNE 3.5 mph - N/A   Overcast
11:54 PM 39.2 °F 35.9 °F 24.8 °F 56% 29.74 in 10.0 mi NNE 4.6 mph - N/A   Overcast